OV1-5 R/B, 2123

Orbit data source: Space-Track

OV1-5 R/B, 2123 is space debris in LEO originally from a launch on Wed, 30 Mar 1966 UTC launched from the Air Force Western Test Range (AFWTR). Debris objects in space refer to the collection of defunct objects orbiting the Earth. Examples of debris include non-operational satellites, rocket bodies, and fragments generated from explosions, collisions, or faulty payload assembly.

Loading next visibility...
Identifier
2123, 1966-025C
Orbit
LEO
Country
Flag of USUS
Related business
Manufacturer
ABL
Mission
Spacecraft
Bus & Motor
ALTAIR, Unknown motor
Mass
~125 kg wet, ~125 kg dry
Launch date (UTC)
1966-03-30 (60 years ago)
Launch vehicle
Unknown
Launch site
Air Force Western Test Range (AFWTR)
Object type
Payload
Rocket body
Debris
Shape & HBR
Unknown
Radar Cross Section
Medium (>0.1 m² and <1 m²)

Expand to show TLE details & history
Last TLE update: 1 day ago

TLE from 1 day ago
0 OV1-5 R/B
1 02123U 66025C   25293.57087434  .00000364  00000-0  12619-3 0  9991
2 02123 144.6399 200.9887 0046122  54.6415 305.8559 13.65869757972011
Epoch: 2025-10-20T13:42Z
TLE epoch observation values (Epoch: 2025-10-20T13:42:03.542Z)
Latitude
-0.00001°
Longitude
-33.79733°
Altitude
993.591 km
Speed
7.367 km/s
True Right ascension
13h 23m 57s
True Declination
0° 00' 00"
Sunlit
Object was in daylight at epoch
Visualization orbit readout
Latitude
Unknown
Longitude
Unknown
Altitude
Unknown
Speed
Unknown
Apparent Right ascension
Unknown
Apparent Declination
Unknown
Sunlit
N/A
Visualization observer readout
Local Sidereal Time
08:43:38
Azimuth
Unknown
Elevation
Unknown
Doppler factor
Unknown
Orbital elements
Apogee altitude
1,051.516 km
Perigee altitude
983.297 km
Semi-major axis
7,395.544 km
Eccentricity
0.00461
Inclination
144.6399°
RAAN
200.9887°
Arg. of periapsis
54.6415°
True anomaly
305.42609°
Mean anomaly
305.8559°
Eccentric anomaly
305.64114°
Mean motion
3.41262 °/min
Orbital period
105.49 mins
BSTAR
0.00012619
Loading maneuver chart data...
Computing Atmospheric mass density...
Loading historical data...
Loading historical data...
Loading historical data...
Loading historical data...
Loading historical data...
Loading historical data...
Loading historical data...

Documentation

Showing up to 5 results
|